User: anonymous   Login
Location: Nelson
(41.2830°S, 173.2830°E)
Time: 00:37:19
(UTC+13:00)
Language:

Spot 2 Rocket - Orbit

View from above orbital plane
View from above orbital plane
View from above satellite
View from above satellite

Ground track
Ground track

The orbit data is extracted from the following two-line orbital elements,

1 20443U 90005H   19289.18422527  .00000003  00000-0  15872-4 0  9997
2 20443  98.6124 345.9526 0010211 359.7884   0.3297 14.38072358557120
Epoch (UTC): 16 October 2019 04:25:17
Eccentricity: 0.0010211
inclination: 98.6124°
perigee height: 757 km
apogee height: 772 km
right ascension of ascending node: 345.9526°
argument of perigee: 359.7884°
revolutions per day: 14.38072358
mean anomaly at epoch: 0.3297°
orbit number at epoch: 55712

The dashed part of the orbit path shows where the satellite is in the earth's shadow,  

DLR